Meteo Giornale » Osservazioni meteo Francia » Castres-Mazamet
ore: 17:00 - Osservazioni Meteo Castres-Mazamet
Lat. 43° 33' N Lon. 2° 17' E Alt. 240 metri s.l.m.
31 °C
Sereno
Temp. 24 Ore
14 °C
31 °C
Ovest
13 Km/h
Dew point 10 °C
Umidità 27 %
Visibilità 10 Km
Il sole sorge alle ore 07:14
Il sole tramonta alle ore 20:27
| Data e Ora | Cielo e Fenomeni | T °C | DP °C | Um. % | Pres. hPa | Vis. km | Vento km/h | |
|---|---|---|---|---|---|---|---|---|
| Oggi h: 17:00 | Sereno | 31 | 10 | 27 | 1019 | 10 | O 13 | |
| Oggi h: 16:30 | Sereno | 31 | 10 | 27 | 1019 | 10 | O/SO 13 | |
| Oggi h: 16:00 | Sereno | 31 | 10 | 27 | 1019 | 10 | SO 9.3 | |
| Oggi h: 15:30 | Sereno | 31 | 10 | 27 | 1019 | 10 | N/NO 7.4 | |
| Oggi h: 15:00 | Sereno | 30 | 10 | 28 | 1020 | 10 | N 5.5 | |
| Oggi h: 14:30 | Sereno | 30 | 10 | 28 | 1020 | 10 | N 7.4 | |
| Oggi h: 14:00 | Sereno | 28 | 11 | 34 | 1021 | 10 | NO 7.4 | |
| Oggi h: 13:30 | Sereno | 28 | 12 | 37 | 1021 | 10 | N 7.4 | |
| Oggi h: 13:00 | Sereno | 27 | 12 | 39 | 1021 | 10 | N 5.5 | |
| Oggi h: 12:30 | Sereno | 27 | 13 | 42 | 1022 | 10 | N 5.5 | |
| Oggi h: 12:00 | Sereno | 26 | 13 | 44 | 1022 | 10 | N 3.7 | |
| Oggi h: 11:30 | Sereno | 25 | 13 | 47 | 1022 | 10 | N 3.7 | |
| Oggi h: 11:00 | Sereno | 24 | 13 | 50 | 1022 | 10 | N 3.7 | |
| Oggi h: 10:30 | Sereno | 23 | 14 | 56 | 1022 | 10 | N 5.5 | |
| Oggi h: 10:00 | Sereno | 21 | 14 | 64 | 1022 | 10 | N 5.5 | |
| Oggi h: 09:30 | Sereno | 19 | 14 | 72 | 1022 | 10 | N 5.5 | |
| Oggi h: 09:00 | Sereno | 19 | 15 | 77 | 1022 | 10 | N 0 | |
| Oggi h: 08:30 | Sereno | 18 | 14 | 77 | 1022 | 10 | N 0 | |
| Oggi h: 08:00 | Sereno | 16 | 14 | 87 | 1022 | 10 | N 3.7 | |
| Oggi h: 07:30 | Sereno | 14 | 13 | 93 | 1022 | 10 | N 5.5 | |
| Oggi h: 07:00 | Sereno | 14 | 13 | 93 | 1022 | 10 | E/SE 7.4 | |
| Oggi h: 06:30 | Sereno | 15 | 14 | 93 | 1022 | 10 | N 3.7 | |
| Oggi h: 06:00 | Sereno | 15 | 13 | 87 | 1022 | 10 | N 5.5 | |
| Oggi h: 05:30 | Sereno | 15 | 13 | 87 | 1022 | 10 | N 5.5 | |
| Oggi h: 05:00 | Sereno | 15 | 13 | 87 | 1022 | 10 | E 7.4 | |
| Oggi h: 04:30 | Sereno | 16 | 14 | 87 | 1022 | 10 | SE 7.4 | |
| Oggi h: 04:00 | Sereno | 15 | 13 | 87 | 1023 | 10 | N 5.5 | |
| Oggi h: 03:30 | Sereno | 16 | 13 | 82 | 1023 | 10 | N 5.5 | |
| Oggi h: 03:00 | Sereno | 16 | 13 | 82 | 1023 | 10 | N 5.5 | |
| Oggi h: 02:30 | Sereno | 17 | 13 | 77 | 1023 | 10 | N 3.7 | |
| Oggi h: 02:00 | Sereno | 17 | 13 | 77 | 1023 | 10 | N 5.5 | |
| Oggi h: 01:30 | Sereno | 17 | 13 | 77 | 1023 | 10 | N 0 | |
| Oggi h: 01:00 | Sereno | 18 | 13 | 72 | 1023 | 10 | N 1.8 | |
| Oggi h: 00:30 | Sereno | 17 | 13 | 77 | 1023 | 10 | N 5.5 | |
| Oggi h: 00:00 | Sereno | 18 | 13 | 72 | 1023 | 10 | N 0 | |
| Ieri h: 23:30 | Sereno | 19 | 13 | 68 | 1023 | 10 | N 0 | |
| Ieri h: 23:00 | Sereno | 19 | 13 | 68 | 1023 | 10 | N 3.7 | |
| Ieri h: 22:30 | Sereno | 20 | 13 | 64 | 1023 | 10 | N 3.7 | |
| Ieri h: 22:00 | Sereno | 20 | 13 | 64 | 1022 | 10 | N 1.8 | |
| Ieri h: 21:30 | Sereno | 22 | 13 | 56 | 1022 | 10 | O 7.4 | |
| Ieri h: 21:00 | Sereno | 23 | 13 | 53 | 1022 | 10 | O 13 | |
| Ieri h: 20:30 | Sereno | 24 | 13 | 50 | 1022 | 10 | O 13 | |
| Ieri h: 20:00 | Sereno | 25 | 13 | 47 | 1022 | 10 | O/NO 14.8 | |
| Ieri h: 19:30 | Sereno | 26 | 13 | 44 | 1022 | 10 | O/NO 20.3 | |
| Ieri h: 19:00 | Sereno | 26 | 13 | 44 | 1022 | 10 | N 14.8 | |
| Ieri h: 18:30 | Sereno | 26 | 13 | 44 | 1022 | 10 | NO 16.7 | |
| Ieri h: 18:00 | Sereno | 25 | 13 | 47 | 1022 | 10 | N/NO 18.5 | |



